Theta_e
302 298 296 295 298 298 299 300 301 298 298 296 297 296 295 295 297 296 296 297 295 296 297 298 299 299 300 302 298 297 295 295 295 294 293 293 293 293 293 293 292 292 292 293 293 293 293 294 294 295 296 296 297 297 298 299 299 300 301 302 301 302 303 305 305 305 305 304 301 300 299 297 297 297 297 296 296 297 297 298 299 300 300 301 302 302
299 297 298 300 300 300 300 300 298 296 296 296 296 295 295 296 294 297 296 295 296 295 296 296 296 297 299 301 300 296 295 295 295 295 294 293 293 293 293 292 292 292 292 292 293 292 293 293 294 295 295 295 296 295 296 297 298 298 300 300 300 301 301 302 302 302 301 300 300 299 297 296 296 296 296 295 295 295 296 296 297 298 298 299 299 300
296 295 300 301 299 299 298 297 296 297 296 295 295 295 293 295 296 297 295 295 296 294 295 295 294 296 299 301 299 296 295 296 295 295 295 294 293 292 292 292 292 291 292 291 291 292 292 293 293 294 294 294 294 295 295 296 298 298 299 299 300 301 301 301 301 301 299 299 299 298 296 295 294 294 295 294 294 294 294 294 295 295 296 297 297 298
293 297 301 298 298 296 294 295 294 294 295 295 294 292 291 296 293 294 294 293 293 295 294 293 293 296 300 301 299 295 294 292 291 291 292 293 293 293 292 292 292 291 291 291 291 291 291 292 293 293 293 293 294 294 295 295 296 297 298 298 299 299 299 299 298 297 297 297 297 297 296 296 295 293 294 294 294 293 293 292 293 293 294 294 295 296
297 297 294 297 297 297 295 293 293 293 293 295 295 294 294 294 294 294 295 294 293 293 291 293 294 295 299 299 297 291 291 290 290 290 291 291 292 292 292 292 292 291 291 291 291 291 291 292 291 291 291 292 293 293 293 293 294 295 296 297 298 298 298 298 297 297 296 296 295 295 295 296 295 295 294 293 291 291 291 291 291 291 292 293 293 293
298 296 296 295 295 296 295 292 294 296 293 294 295 295 295 296 294 294 294 293 294 294 293 294 291 293 297 295 296 292 290 290 290 290 291 291 291 290 290 291 291 291 291 291 291 291 291 291 291 291 291 292 292 291 291 292 293 295 296 296 297 297 297 297 298 299 299 297 296 296 295 294 292 290 290 288 288 289 289 288 290 290 291 291 291 292
297 295 297 295 294 295 295 295 296 296 294 292 295 296 295 295 294 294 292 292 290 289 291 290 290 289 297 296 296 292 291 291 290 289 291 291 290 290 291 292 291 290 290 290 290 290 290 290 291 290 291 291 291 290 291 291 292 293 294 295 296 296 296 296 296 297 297 296 295 294 293 292 291 288 288 289 289 289 289 290 289 289 290 290 290 290
295 293 295 296 295 295 293 292 295 294 294 293 295 293 295 293 293 293 293 293 293 293 293 289 292 288 289 296 295 290 291 292 292 291 290 290 290 290 291 291 291 291 291 291 290 290 290 290 290 290 289 289 289 289 290 291 291 292 292 294 294 294 294 294 295 294 295 293 293 292 291 290 289 288 287 288 288 289 289 289 289 289 288 289 290 289
295 293 294 294 295 294 294 297 297 296 295 295 291 294 294 294 294 295 294 292 292 290 289 290 293 287 288 295 293 292 292 295 294 293 291 291 291 291 291 291 291 291 291 291 290 289 289 289 289 289 289 288 289 289 289 289 290 291 291 292 292 292 292 292 292 293 293 293 292 291 290 289 289 289 288 289 289 289 289 288 288 288 288 288 288 289
295 296 297 298 296 294 296 292 296 296 295 293 292 293 293 293 293 294 293 293 290 288 286 290 291 287 289 295 296 293 292 293 297 296 293 291 291 291 291 291 291 291 290 290 290 290 289 289 288 288 288 288 288 288 289 289 290 290 291 290 290 290 290 291 291 291 291 291 291 290 290 288 288 288 288 289 288 288 289 288 288 288 288 287 287 287
293 293 294 296 296 297 292 290 291 295 293 294 295 295 293 293 292 291 292 291 288 283 286 293 291 291 286 293 294 295 296 297 295 292 292 292 292 291 291 291 291 290 290 290 289 289 289 288 288 287 288 287 287 288 288 289 289 290 290 289 289 289 289 290 290 290 290 290 291 290 290 289 288 289 288 288 288 288 288 287 287 287 287 287 286 287
294 293 295 296 292 292 295 291 291 290 292 295 294 293 293 290 291 290 288 289 284 284 287 286 290 291 284 290 296 299 294 293 295 295 292 291 291 291 290 290 290 290 290 289 289 288 288 287 287 287 286 287 287 287 287 288 288 289 289 289 288 288 288 289 289 289 289 290 290 290 290 289 289 289 289 288 288 288 287 287 286 287 287 286 287 286
291 293 295 294 293 295 295 294 291 292 291 293 294 293 289 287 286 283 285 282 283 284 285 286 287 285 286 293 297 296 296 294 293 292 293 292 291 290 290 290 290 290 290 289 289 288 288 287 287 286 286 286 286 287 287 287 288 288 289 288 288 287 288 288 289 289 289 289 289 289 289 289 289 289 289 288 288 288 287 287 287 287 286 286 285 285
293 295 293 295 294 294 297 293 289 289 290 292 291 290 288 284 282 280 283 283 282 285 284 286 288 285 291 293 297 298 292 289 289 290 289 292 292 291 291 291 290 290 290 290 289 289 288 288 287 287 286 286 286 286 287 287 287 288 288 288 287 287 288 288 288 288 288 288 289 289 289 289 289 288 288 288 287 287 287 287 286 286 285 285 284 284
288 288 292 293 292 296 296 298 296 295 291 292 297 294 290 290 284 280 283 281 284 285 283 285 284 286 286 292 289 290 287 288 287 287 289 288 291 292 292 291 291 290 290 290 289 289 288 288 288 287 287 286 286 286 286 287 287 288 288 287 287 287 287 288 288 288 288 288 288 288 288 288 288 288 287 287 287 286 286 286 285 285 285 285 285 284
291 293 294 296 293 295 294 297 297 295 293 293 293 295 289 290 294 287 285 285 283 284 282 281 285 291 292 290 290 287 288 287 287 288 288 289 289 291 290 290 290 290 290 290 289 289 289 288 288 287 287 286 286 286 286 286 287 288 288 287 287 287 287 288 288 288 288 288 288 288 287 287 287 287 287 286 286 286 286 286 285 284 285 285 285 285
289 289 291 292 291 294 296 294 295 298 288 291 291 287 291 294 293 285 282 281 281 283 283 288 287 290 294 294 290 289 288 288 287 288 288 289 289 290 290 290 290 290 290 290 290 289 289 288 287 287 287 286 286 286 286 286 287 288 287 287 287 287 287 288 288 288 288 288 287 287 287 287 287 287 286 285 285 285 286 286 285 285 285 285 285 284
289 291 289 292 290 290 289 292 294 292 296 291 287 292 293 295 295 290 285 283 283 282 284 286 285 288 287 287 291 291 290 290 288 288 289 289 288 288 290 290 291 291 291 291 290 290 289 288 288 288 287 287 286 286 286 286 287 288 288 287 287 286 286 287 287 287 287 287 287 286 287 287 287 287 286 286 285 286 286 286 285 285 285 284 284 284
297 289 290 289 290 291 290 294 293 295 294 293 292 300 291 286 285 289 287 280 280 279 283 284 286 288 290 290 290 291 291 293 291 288 287 288 288 289 290 291 291 291 291 290 290 290 289 288 288 288 287 287 287 286 286 287 287 287 287 287 287 287 287 287 287 287 287 287 287 287 286 286 286 286 286 286 286 286 286 285 285 284 284 284 284 283
295 290 289 289 290 291 291 293 287 290 293 292 293 292 294 292 290 286 287 287 287 283 282 283 282 285 291 293 293 294 295 296 293 288 289 290 290 290 290 291 291 291 291 291 290 290 289 289 289 288 287 286 286 286 286 286 286 286 287 287 287 287 287 286 286 286 286 286 286 286 286 286 286 286 285 285 285 285 285 284 284 284 283 283 283 283
291 293 288 288 289 290 286 290 289 291 287 288 290 290 290 289 291 292 290 287 286 284 283 283 282 287 292 295 295 296 296 296 294 292 292 291 292 291 291 291 291 291 291 291 291 290 289 289 289 288 287 287 287 287 286 286 286 286 287 286 286 286 285 285 285 285 285 285 285 284 284 284 284 284 284 284 285 284 283 284 284 284 284 283 283 283
289 289 288 286 286 286 290 293 291 294 294 291 291 289 291 288 286 283 283 288 285 285 283 283 282 287 292 288 294 295 295 295 296 295 295 293 291 291 290 291 292 292 292 292 291 290 289 289 289 288 287 287 286 286 285 286 286 286 286 286 286 286 285 285 285 285 285 285 284 284 284 284 284 284 283 283 283 282 282 282 282 282 283 282 282 282
296 291 289 284 287 288 290 290 289 289 290 292 292 292 294 292 291 287 283 284 284 286 285 285 282 287 291 289 289 290 290 289 290 291 292 292 291 291 291 291 292 292 292 292 290 289 289 289 289 287 286 286 286 286 285 285 286 286 286 286 286 285 285 285 285 285 285 284 284 284 284 283 283 282 282 282 282 282 283 283 282 283 282 282 282 282
293 288 287 288 290 290 290 291 291 290 291 291 291 292 292 290 292 291 290 289 287 286 284 285 282 287 289 289 288 287 286 286 287 288 290 290 290 290 290 290 290 290 291 290 290 289 289 289 289 287 286 285 285 285 285 285 286 286 286 286 286 285 285 285 285 284 284 284 283 283 282 282 282 281 282 282 283 282 283 282 282 282 281 281 281 281
289 289 289 285 284 286 288 290 290 291 290 290 290 291 292 293 291 286 285 287 286 287 287 285 281 286 290 289 286 284 285 285 286 287 287 289 289 289 289 289 290 290 289 289 289 289 289 289 288 287 286 286 285 286 285 285 286 286 286 286 285 285 285 284 285 284 284 284 283 282 282 282 282 283 283 283 283 282 282 282 282 281 281 280 280 280
292 290 288 283 280 279 279 280 282 284 285 289 290 291 291 291 289 287 285 286 283 286 287 286 286 290 290 286 287 287 286 287 286 287 285 288 289 289 289 289 289 289 289 289 289 289 288 288 288 288 287 286 286 286 286 286 286 286 286 285 285 285 285 284 284 283 283 283 282 282 283 283 283 283 283 283 283 282 282 282 281 281 280 279 279 279
289 290 291 289 288 286 289 289 291 292 288 285 286 287 288 290 290 289 290 286 284 285 285 288 289 288 285 287 288 288 286 288 289 287 286 285 285 287 288 288 288 288 289 288 289 289 289 288 288 288 288 286 286 286 286 286 286 286 285 285 285 285 285 284 283 283 283 283 283 283 283 283 283 283 283 283 283 282 282 281 280 279 279 278 278 278
288 288 290 292 291 293 291 291 292 293 288 289 287 286 289 288 288 287 286 285 289 286 283 290 290 287 290 289 288 287 288 289 290 289 288 287 287 287 288 288 288 288 288 288 288 288 288 288 288 288 288 287 286 286 286 286 286 286 285 284 284 284 284 284 284 283 283 283 283 283 283 283 283 283 283 283 282 282 281 280 279 278 278 277 277 276
289 288 292 291 289 292 288 289 290 293 292 292 290 288 287 289 287 285 286 290 288 286 285 289 290 288 291 291 292 292 292 291 291 291 291 290 289 288 287 287 287 287 288 287 288 288 288 288 288 288 288 288 287 286 286 286 286 285 285 285 285 285 284 284 284 283 283 283 283 283 284 283 283 283 283 282 281 281 280 279 278 277 277 276 276 276
290 288 290 290 288 290 289 288 289 288 289 288 290 291 291 289 288 288 288 289 288 288 290 291 288 290 294 292 293 293 293 293 292 290 289 288 288 287 287 287 287 287 287 287 287 288 288 288 288 288 288 288 287 286 286 285 285 285 285 285 285 285 284 284 283 283 283 282 282 283 283 283 282 282 282 281 281 280 279 278 277 276 275 275 275 275
290 287 290 289 287 287 288 287 287 288 287 286 287 289 290 289 288 287 287 287 288 287 289 287 287 287 293 295 294 290 290 288 288 287 288 289 288 287 287 287 288 288 288 288 288 288 288 288 288 288 288 287 287 287 286 286 286 286 285 285 285 285 284 284 283 282 282 282 283 283 283 282 282 282 281 281 280 279 278 276 275 275 275 274 274 273
291 287 289 290 286 286 286 286 286 286 286 285 286 288 287 286 284 285 285 288 286 285 287 286 285 286 291 291 289 288 287 288 289 289 288 288 288 288 288 288 288 288 288 288 288 288 288 288 287 287 287 287 288 288 287 287 287 286 285 285 285 285 284 283 283 283 283 283 283 283 282 282 282 281 281 280 279 277 276 275 274 274 273 273 272 272
290 288 285 287 284 285 284 287 285 283 284 282 283 287 290 287 289 288 288 289 288 289 285 284 285 291 292 290 289 287 288 289 290 289 289 289 289 289 289 289 289 289 289 289 288 288 288 288 288 288 288 288 288 288 289 289 287 286 286 285 285 285 284 283 283 283 283 283 283 283 282 282 282 281 280 279 277 276 274 273 273 272 272 271 272 271
287 287 287 289 284 283 277 284 284 282 276 280 288 295 292 289 290 287 286 286 288 289 288 290 290 288 287 288 289 288 287 287 289 291 292 292 289 288 289 289 290 290 289 289 289 289 289 289 289 289 288 288 288 288 289 289 288 288 287 286 286 285 284 283 283 284 283 283 283 283 283 282 281 280 279 278 276 274 273 272 272 272 272 271 270 270
286 286 287 287 284 278 280 282 280 276 280 284 280 284 289 294 292 289 290 290 289 289 288 286 285 286 288 288 291 292 290 289 287 289 288 289 291 290 288 288 288 288 288 288 288 288 289 289 288 288 287 287 287 287 287 287 288 288 287 286 285 285 284 284 284 284 284 284 283 283 282 281 280 280 278 276 274 273 273 272 272 271 271 270 270 270
286 286 287 284 282 280 278 281 275 278 283 280 281 282 284 289 291 290 288 291 292 290 290 289 289 288 288 288 286 286 288 285 285 284 286 287 288 289 289 289 289 288 288 289 289 289 288 287 287 287 286 287 286 285 286 286 286 286 286 286 285 284 284 284 283 283 284 283 283 282 281 280 279 279 276 274 273 272 272 271 271 270 270 269 270 269
289 287 287 283 284 279 279 280 282 285 284 282 280 281 285 286 286 287 284 288 292 291 289 289 289 288 286 285 282 282 282 284 284 286 286 286 285 287 289 290 290 290 290 290 289 289 289 288 287 286 285 285 285 284 284 285 285 285 284 284 284 284 283 283 282 283 283 282 282 281 280 280 279 277 275 273 272 271 272 271 270 269 269 268 269 269
289 286 287 284 282 282 278 277 277 280 278 284 284 285 288 287 290 290 287 286 284 287 288 288 287 288 285 282 282 281 283 284 283 286 286 286 286 286 286 286 286 288 288 288 287 286 285 285 284 284 284 284 284 284 284 284 284 284 283 282 283 282 282 282 282 282 282 282 282 280 280 279 278 276 274 272 272 271 271 271 270 269 268 268 267 268
285 286 285 285 282 280 279 278 278 276 280 285 285 281 282 284 288 287 285 281 285 283 287 288 287 288 285 282 280 282 283 281 282 286 285 285 286 286 286 286 286 287 287 287 286 286 285 284 284 283 283 283 283 283 283 283 283 282 282 282 281 281 281 281 282 282 282 282 282 281 279 277 277 275 273 272 271 270 270 269 268 268 267 266 267 266
283 283 284 281 280 282 280 279 277 282 282 283 282 280 283 284 287 287 276 278 284 282 285 287 287 287 285 282 282 283 283 281 283 287 286 285 285 285 286 286 285 284 284 283 284 285 284 283 282 282 282 283 284 283 282 282 282 281 282 281 281 280 280 281 282 283 283 282 280 278 276 275 274 274 272 271 270 269 269 268 267 266 266 266 266 266
281 280 282 279 282 282 281 280 282 282 285 279 280 281 282 281 286 279 275 281 280 281 283 287 287 285 282 281 283 282 285 286 286 285 285 284 283 283 283 284 285 285 285 283 282 282 282 283 284 284 284 285 285 282 281 281 281 281 281 280 279 279 281 282 282 282 281 279 276 275 273 273 272 271 270 270 268 268 266 267 267 265 264 264 265 264
278 278 278 281 279 280 281 279 279 283 285 280 279 281 282 284 277 277 284 282 281 280 282 285 284 282 282 282 283 285 285 283 282 283 283 283 285 285 283 282 281 281 281 281 281 281 281 282 283 284 284 283 282 280 280 280 281 281 280 278 278 280 282 281 280 279 277 275 274 272 270 269 269 269 267 266 266 265 264 265 265 264 263 264 264 262
281 278 277 279 281 278 278 278 278 275 282 280 281 281 281 281 282 284 281 281 283 283 282 283 284 282 283 282 283 284 282 282 282 283 283 283 284 283 282 281 281 281 281 281 280 281 281 281 281 282 283 282 280 279 279 280 280 280 278 278 279 281 279 278 276 275 274 272 270 268 267 267 265 264 263 263 264 264 264 263 262 261 262 262 262 261
285 278 277 280 285 277 278 275 277 284 281 282 284 282 283 284 287 283 284 281 280 281 282 283 283 282 283 283 283 283 282 282 281 281 281 281 281 281 281 281 281 281 282 282 283 282 281 282 282 282 282 281 278 278 278 279 279 279 277 278 281 277 274 274 273 272 271 269 268 266 265 264 263 263 262 262 262 262 263 262 262 261 262 262 262 263
285 283 284 281 285 281 280 284 283 282 282 284 285 283 285 285 283 284 285 284 282 281 282 283 283 282 282 283 283 282 280 281 282 282 281 281 281 281 280 281 281 281 281 281 281 281 280 281 282 282 282 281 277 277 277 278 279 278 276 280 277 274 272 271 270 269 268 267 266 264 264 262 262 261 261 261 262 262 262 261 260 262 262 261 262 263
279 281 282 283 282 281 280 281 281 280 282 283 283 284 284 282 280 283 284 283 283 283 282 283 284 282 281 282 282 281 281 281 281 281 281 282 282 282 282 281 280 281 280 280 280 279 279 280 281 281 281 281 277 276 275 276 278 278 278 279 275 273 270 268 267 267 267 266 265 264 262 261 261 260 260 261 262 263 264 263 261 263 264 263 263 263
279 279 281 281 283 280 278 279 279 281 282 283 283 281 281 280 280 281 282 284 284 282 282 283 283 282 281 281 282 282 281 281 281 281 281 281 281 281 280 280 281 281 280 279 280 279 278 278 278 278 279 280 279 275 274 274 276 278 280 275 273 271 269 267 268 267 267 265 264 263 261 262 262 261 260 260 261 262 263 263 263 263 263 263 263 263
280 282 279 280 278 279 278 278 278 278 279 282 283 282 281 281 280 279 281 281 282 282 282 281 281 281 281 280 281 282 282 281 281 281 280 281 281 281 280 280 281 280 280 281 281 279 278 277 278 278 279 279 281 277 274 273 273 275 275 272 271 268 267 267 268 268 266 265 264 263 261 263 261 261 262 260 261 262 262 262 262 263 263 264 264 264
282 282 276 280 277 277 276 278 278 279 280 281 280 281 282 282 281 280 280 280 279 280 280 279 280 280 280 281 281 282 282 281 281 281 281 281 280 280 279 279 280 281 281 279 278 276 277 278 277 278 278 279 281 279 275 273 273 273 272 270 268 267 267 268 267 268 266 265 264 263 262 263 263 263 263 262 260 262 263 262 262 262 262 262 263 264
279 278 280 278 275 275 276 278 278 276 276 280 280 281 282 282 282 281 280 280 280 279 279 279 279 279 279 281 281 281 281 282 281 281 280 281 281 280 280 279 280 280 279 280 279 276 276 277 277 277 277 278 279 277 275 273 272 271 270 268 266 266 267 268 267 267 266 264 263 263 262 262 262 262 262 262 262 260 260 260 264 263 262 262 263 265
279 280 278 277 278 277 280 279 281 283 281 282 284 284 283 282 281 281 280 281 281 281 280 280 279 278 277 278 279 280 280 281 281 280 280 280 280 281 281 280 280 279 279 278 276 275 274 276 276 276 276 277 277 276 274 273 271 269 267 267 266 266 267 268 267 267 266 263 263 263 262 262 262 261 262 261 262 261 261 262 262 266 267 267 266 267
Wind_Speed
2 7 7 9 10 10 12 14 10 4 3 5 1 2 7 7 9 4 1 2 1 3 11 13 13 14 14 10 9 7 5 6 7 8 7 7 6 6 5 4 3 2 2 2 2 3 3 3 4 3 3 3 5 6 5 5 6 6 5 6 7 4 4 4 5 5 6 8 8 8 9 8 6 7 7 9 8 9 8 9 9 9 8 9 9 10
3 7 11 14 2 6 11 10 2 2 2 4 4 5 9 5 10 1 2 2 0 4 5 2 8 13 14 12 6 7 7 12 12 10 8 8 7 5 5 4 4 2 2 2 2 2 2 2 3 2 2 4 5 5 5 5 5 6 6 6 6 4 5 6 5 6 7 7 7 8 7 7 7 7 7 8 8 8 8 10 10 9 9 9 10 9
7 10 12 4 6 3 2 6 4 8 6 3 7 5 5 9 5 7 3 3 2 3 11 1 9 13 13 12 6 9 10 4 2 3 5 6 6 5 5 5 5 4 4 4 3 2 2 2 3 2 3 3 4 4 5 4 5 6 6 6 5 5 5 6 6 6 8 8 8 9 8 8 9 8 8 8 7 8 9 9 10 9 9 9 9 10
5 10 11 7 6 7 3 5 6 5 4 7 5 6 10 1 1 5 4 2 3 4 2 2 8 13 14 11 9 4 4 1 1 1 2 3 5 5 5 5 5 5 5 5 4 4 3 3 2 2 3 3 3 3 4 4 5 5 5 5 6 6 7 7 7 9 10 11 12 12 11 10 9 8 8 9 9 10 11 11 10 10 10 10 10 11
10 4 2 8 9 9 7 6 8 7 9 9 9 9 9 6 8 9 3 1 2 4 1 6 10 13 13 11 7 3 1 1 2 3 4 4 3 1 1 3 3 5 5 5 5 4 4 3 3 3 3 2 3 4 3 3 4 4 5 6 6 7 8 7 9 10 10 11 12 11 12 11 10 8 8 8 9 9 9 9 10 10 10 10 10 10
11 4 6 8 6 8 6 6 10 9 9 6 10 13 12 9 9 6 1 4 6 6 5 4 6 7 1 4 5 3 3 5 5 6 8 6 6 5 6 6 5 3 3 5 5 5 3 3 3 3 3 3 3 3 3 3 3 4 5 5 6 7 6 7 7 6 5 7 9 9 9 9 8 8 7 8 7 7 8 8 7 9 10 10 10 10
4 4 6 7 8 8 10 9 8 11 8 5 4 11 14 13 8 3 5 3 6 7 2 3 8 6 2 6 4 3 4 6 6 8 8 8 8 7 7 7 7 7 6 4 4 4 5 4 4 4 3 2 3 3 2 3 4 5 5 5 6 6 5 5 5 4 5 6 6 8 9 9 8 10 7 6 6 7 6 7 8 8 9 9 10 10
5 4 4 3 7 8 6 9 7 11 7 7 2 2 6 6 7 10 8 9 6 3 1 2 3 6 8 12 4 2 5 8 10 11 11 10 9 9 8 8 7 7 7 6 6 5 4 4 3 4 3 2 3 2 2 3 4 5 5 6 6 5 5 5 4 5 4 7 8 10 10 9 10 10 10 7 7 6 6 7 8 7 8 9 9 9
7 7 9 8 8 7 11 7 9 13 8 1 2 1 5 6 7 5 6 6 2 3 7 7 4 4 8 7 4 1 7 9 12 13 13 12 11 10 10 8 8 7 7 6 6 7 6 5 4 3 3 3 3 2 2 3 4 4 5 6 7 7 7 6 7 6 6 7 8 9 10 11 9 9 8 7 6 7 6 8 7 8 8 8 9 9
2 2 6 9 9 10 3 3 6 12 11 2 5 8 7 5 5 4 4 4 2 4 9 8 10 7 10 6 8 4 4 10 6 7 11 13 13 11 9 8 8 7 6 5 5 6 5 4 3 2 3 3 3 2 3 3 4 5 5 7 9 8 7 7 8 8 9 8 7 9 10 14 10 8 7 7 7 7 6 8 7 7 7 7 7 8
1 1 1 3 8 2 6 5 4 2 4 10 6 8 6 5 4 3 1 2 1 8 11 9 15 10 7 5 9 7 6 2 3 2 3 9 9 9 8 9 8 7 7 5 5 5 4 3 3 3 4 4 4 3 3 3 4 4 6 8 9 8 7 7 8 9 9 8 8 9 10 12 12 10 9 8 7 6 6 7 7 7 6 6 6 6
2 2 3 1 3 4 5 7 6 2 2 7 4 5 6 2 3 2 1 2 5 8 4 2 6 12 11 4 7 6 3 1 1 1 7 10 11 10 9 8 9 8 7 7 6 6 5 5 4 4 5 5 5 5 4 4 4 5 5 7 11 9 8 7 8 9 8 8 8 9 10 11 10 9 7 8 8 7 7 7 7 5 6 6 6 6
5 7 2 2 3 5 6 7 4 4 3 3 5 7 7 3 1 5 3 6 10 7 2 2 6 3 15 9 4 3 3 3 2 3 1 8 10 10 9 10 8 7 8 7 7 6 6 6 7 7 6 6 6 5 5 5 4 5 6 8 10 9 8 8 8 9 9 8 8 8 9 9 8 8 8 8 8 6 6 5 6 5 5 5 6 5
4 4 3 5 3 6 10 10 7 3 8 7 11 10 9 6 5 6 4 2 4 0 1 2 2 7 3 8 16 13 5 3 3 3 2 2 9 10 11 10 9 7 8 7 7 7 7 7 6 6 7 6 5 6 5 5 5 4 6 7 9 10 8 8 8 8 9 8 8 8 8 8 8 8 7 6 6 5 5 4 5 5 5 5 5 5
6 3 10 12 8 11 14 14 11 7 13 13 5 10 7 7 4 6 6 7 3 1 3 2 3 4 5 3 4 3 2 1 1 2 2 1 2 7 8 8 8 9 8 7 7 8 8 8 8 7 6 6 6 6 6 5 5 6 6 7 9 10 8 8 8 8 9 8 8 8 8 7 7 7 7 6 6 6 6 5 5 5 4 4 4 4
11 7 4 5 3 12 16 2 6 8 5 4 1 3 1 8 1 5 1 2 2 1 3 2 5 1 4 2 1 1 2 2 3 3 3 4 5 7 8 10 10 10 9 8 8 9 9 8 8 7 7 6 6 7 6 7 6 6 7 8 8 10 9 8 8 8 8 8 8 9 9 8 8 7 7 6 5 5 5 5 5 5 4 4 4 4
3 7 4 1 2 8 7 5 5 6 9 8 5 8 6 5 2 3 2 3 1 1 8 5 5 5 4 3 3 4 4 5 4 4 3 5 6 8 9 10 11 10 10 9 9 9 10 8 8 8 8 8 7 7 8 8 7 7 8 8 9 9 8 8 8 9 8 9 9 9 9 8 8 8 8 7 8 7 6 5 4 5 4 4 4 3
3 1 1 5 7 0 3 3 3 3 2 10 7 9 4 1 4 2 6 2 3 8 5 5 10 6 6 6 6 5 7 7 7 7 5 5 7 10 11 11 12 12 10 10 9 8 9 9 10 9 8 9 9 9 8 8 6 6 6 8 10 9 10 8 9 9 8 10 9 9 9 8 7 8 8 8 8 6 6 5 5 4 4 4 3 3
4 6 4 1 3 3 2 4 2 2 5 2 2 4 8 6 6 5 1 7 4 6 5 6 10 9 11 8 4 7 10 11 9 8 6 8 9 11 11 12 10 9 9 10 11 10 10 10 11 10 9 9 8 8 7 7 6 5 5 7 7 10 9 10 8 8 7 7 6 6 8 9 8 7 7 6 6 6 6 6 5 6 5 4 3 2
2 7 1 1 2 3 2 6 11 9 3 1 1 3 4 3 5 7 6 1 1 7 2 3 7 7 10 9 16 14 12 12 9 7 10 12 13 11 10 12 13 13 12 12 11 10 10 11 10 10 9 9 9 9 8 8 7 8 7 7 7 7 8 8 9 8 9 7 7 8 8 7 7 7 7 7 6 6 6 6 6 6 5 4 3 3
3 1 7 4 3 5 7 9 13 15 12 6 7 8 4 2 3 3 1 4 4 4 5 7 7 3 5 4 14 14 13 8 10 11 9 10 11 10 9 10 12 12 12 12 10 9 10 10 9 8 8 8 8 7 7 7 8 8 7 8 8 10 10 10 9 8 8 8 9 10 10 9 8 8 7 7 6 7 6 5 5 4 4 4 3 2
3 6 9 6 4 9 5 2 3 4 10 13 15 16 17 11 7 7 9 5 1 3 5 3 9 2 2 1 1 3 3 3 7 7 6 6 6 7 7 8 9 10 11 10 8 8 8 8 8 8 7 7 7 8 9 8 8 8 9 8 9 8 9 10 9 9 9 8 8 10 10 10 8 8 7 7 7 6 6 5 4 4 4 4 3 3
4 3 2 6 7 7 1 2 1 3 4 3 5 8 12 10 10 8 10 5 1 5 4 1 3 2 3 0 1 2 1 1 1 1 4 3 5 7 8 8 8 9 9 9 9 8 8 8 8 8 9 10 10 10 10 10 9 10 10 10 9 9 9 9 9 8 8 9 9 10 9 9 8 8 8 7 6 7 6 5 4 3 3 3 3 2
6 3 4 2 3 0 2 2 1 1 1 4 8 4 5 14 11 8 3 5 8 5 4 3 4 2 1 1 1 1 1 2 2 4 6 4 4 6 9 10 11 8 8 8 7 7 8 8 8 9 11 11 11 12 12 10 10 9 9 10 9 10 10 9 8 8 9 8 9 9 9 9 8 9 8 8 6 7 6 5 4 3 3 3 2 2
6 5 6 2 2 2 2 2 4 3 3 10 12 11 10 4 3 2 4 0 4 10 7 7 14 4 6 2 0 1 2 3 5 6 5 5 5 6 8 9 9 10 10 11 12 12 11 10 12 12 11 11 11 10 11 12 11 11 11 10 10 9 10 9 8 8 8 8 9 9 9 10 10 10 9 8 7 7 7 5 4 3 3 2 2 2
8 6 11 9 12 11 9 12 15 13 15 6 2 5 11 16 12 6 8 6 9 4 13 10 10 3 3 1 3 3 3 6 3 4 3 5 5 7 7 8 10 11 12 13 12 12 14 14 12 11 11 11 11 12 12 12 12 11 11 11 9 9 9 8 7 7 8 7 8 9 9 9 9 9 9 8 8 8 6 5 4 4 3 2 2 2
6 6 14 17 15 15 13 0 4 11 8 10 8 13 15 14 12 10 2 5 13 5 10 16 10 5 6 5 6 7 5 7 8 6 6 4 5 5 6 8 9 10 11 13 14 12 9 9 14 15 13 11 12 12 11 12 12 12 11 11 10 9 9 9 9 9 9 10 9 8 9 8 8 8 8 7 7 7 6 5 5 4 3 2 2 1
1 4 17 20 18 16 1 1 5 15 14 16 11 14 14 15 15 16 14 14 10 4 15 8 9 10 10 12 8 9 8 7 4 6 6 6 7 8 8 7 8 8 9 9 10 12 15 15 12 12 14 13 12 11 11 11 12 12 12 12 11 10 9 8 11 11 11 10 9 9 9 8 7 7 7 7 7 6 6 5 5 4 3 3 2 2
5 12 16 14 20 13 1 3 5 6 11 12 17 14 16 15 14 21 19 10 10 13 14 10 15 13 13 14 13 11 13 12 11 10 8 6 6 7 7 9 10 11 11 13 15 14 14 13 13 13 12 12 12 13 13 12 11 10 9 10 11 11 12 11 11 12 12 11 10 9 8 7 5 5 6 7 7 6 6 6 5 4 4 3 2 1
3 11 2 8 14 12 8 5 5 6 4 1 10 15 15 17 20 19 18 16 15 15 16 6 9 13 5 6 12 11 7 6 5 4 5 6 8 9 9 9 10 10 12 13 14 13 11 11 9 10 11 11 14 14 14 12 11 12 13 13 13 12 11 10 11 12 11 10 9 7 8 7 5 6 7 7 7 7 7 6 5 5 4 4 3 2
8 6 9 5 5 10 7 4 5 6 7 7 7 9 13 14 10 17 16 13 12 13 11 0 7 12 6 10 9 5 5 5 5 6 8 7 8 10 10 10 9 9 10 11 11 12 11 10 9 10 12 13 14 14 14 13 13 13 14 14 14 13 12 11 11 10 10 11 9 8 7 7 7 7 8 7 7 5 6 6 5 4 4 4 3 3
6 4 4 4 8 10 6 8 6 2 1 5 10 14 13 11 10 12 10 12 13 14 12 8 12 14 4 7 6 5 7 9 9 9 7 6 9 9 10 9 9 9 10 10 10 9 10 10 11 11 13 13 13 14 13 13 13 14 15 13 12 11 9 9 9 11 11 10 9 9 8 7 7 8 8 7 6 6 5 5 5 4 4 4 4 3
9 6 7 8 10 12 3 9 8 4 1 6 20 25 15 12 11 8 11 14 17 15 12 13 15 10 6 10 8 6 8 7 7 8 7 6 8 9 9 8 8 8 8 8 9 10 10 11 12 13 13 13 14 14 16 14 12 13 12 11 10 8 10 11 11 11 11 9 9 9 8 8 7 7 6 6 6 6 5 5 5 5 5 4 4 3
5 9 9 5 9 2 2 7 8 7 9 18 5 10 20 18 20 16 19 19 17 15 10 8 6 3 7 9 12 11 8 7 10 7 3 6 8 7 6 6 7 6 6 6 7 8 9 8 9 10 12 11 11 11 10 10 11 10 9 9 9 11 11 11 11 11 11 9 9 9 9 8 6 7 6 6 6 6 6 6 5 5 4 4 4 4
13 10 9 4 5 4 5 10 7 13 20 1 4 5 8 19 19 22 21 18 17 14 8 2 2 6 11 11 9 9 8 3 2 4 5 5 5 6 8 8 8 7 7 7 7 8 8 8 8 7 8 9 10 8 8 8 9 7 7 9 9 10 10 10 11 10 10 9 9 8 6 8 7 7 6 6 6 6 6 5 5 5 4 4 4 4
11 11 5 4 4 4 4 10 9 12 2 0 4 3 3 6 3 10 13 13 11 13 15 14 12 8 7 7 4 4 5 3 1 2 4 3 5 6 7 6 6 7 7 8 9 8 8 9 10 10 9 6 7 7 8 9 8 9 9 8 9 9 10 9 8 10 8 8 7 8 8 7 7 7 7 7 7 7 6 5 5 5 4 4 3 3
12 6 6 7 5 8 6 10 8 6 4 5 2 3 7 8 9 12 8 11 16 13 10 12 14 8 6 5 6 5 5 3 1 5 6 7 7 8 7 6 6 6 6 4 5 5 5 5 6 6 5 6 7 8 8 8 8 9 8 8 8 8 7 7 8 9 9 8 9 9 9 9 8 8 8 7 7 6 6 6 5 5 4 4 4 4
5 13 7 8 6 5 4 4 3 4 11 5 3 4 8 4 4 7 5 5 2 6 10 11 12 10 7 5 5 6 5 2 4 7 7 9 10 9 4 1 1 2 2 2 2 2 3 4 4 4 6 7 8 7 7 8 9 9 8 8 7 7 8 7 10 10 9 10 8 9 9 9 8 8 8 8 9 8 6 5 4 5 4 5 4 4
3 1 1 7 1 6 5 8 7 9 5 3 2 1 1 1 8 7 3 6 2 7 11 14 12 7 10 10 6 6 4 5 7 5 5 7 7 6 8 6 5 3 3 4 5 6 6 5 5 6 5 6 7 7 8 8 9 8 9 8 8 8 7 10 10 10 10 11 9 8 8 6 7 8 9 9 8 7 7 6 5 4 4 3 3 3
4 2 4 4 4 5 7 6 8 2 2 0 2 2 2 2 3 5 1 4 4 8 5 6 8 6 6 8 8 7 8 6 9 3 7 8 9 8 8 7 6 5 4 4 3 2 5 7 7 5 6 7 8 8 9 9 8 8 9 8 8 8 8 10 11 11 9 7 6 6 5 6 12 11 14 12 9 6 5 4 5 5 5 4 3 4
4 1 2 8 6 7 8 6 2 3 1 1 2 3 3 2 2 7 7 1 1 2 3 5 5 5 8 9 7 7 9 2 2 4 4 7 6 4 3 1 3 5 5 5 5 6 5 6 7 8 10 8 7 8 8 8 7 7 7 7 9 10 11 11 8 6 7 6 5 6 7 6 9 12 11 8 9 6 5 4 5 5 5 4 4 4
1 3 1 1 5 6 6 4 4 2 2 4 2 3 4 5 5 8 1 1 8 5 4 4 5 7 12 17 11 8 4 5 3 4 5 7 7 6 6 5 3 1 2 3 5 6 4 5 6 5 3 3 5 7 8 7 11 7 8 6 8 11 9 5 6 6 6 6 6 7 8 9 7 8 8 7 6 6 5 4 4 4 5 4 4 5
8 7 5 7 2 3 1 5 2 8 1 7 10 4 4 4 2 4 3 2 1 5 7 5 6 8 12 11 10 5 6 4 4 6 5 5 6 6 7 7 6 6 6 5 4 6 6 5 7 8 8 6 6 7 6 10 12 9 8 9 16 8 5 5 6 5 6 6 9 11 11 9 10 9 6 7 5 6 6 5 4 4 4 4 4 4
2 5 2 2 4 4 7 8 6 1 6 12 15 9 9 3 3 8 7 3 1 4 6 4 5 8 9 8 9 6 4 5 2 2 4 2 3 3 5 4 3 2 3 5 4 7 7 7 6 7 7 6 6 5 6 11 10 9 10 16 7 6 4 5 5 6 9 10 10 11 8 10 8 6 5 6 6 5 5 5 5 4 4 4 4 4
6 7 2 5 4 6 4 2 1 1 9 12 2 4 6 5 2 7 7 8 8 5 5 4 7 7 10 7 7 9 6 6 7 7 8 8 7 7 8 8 7 8 8 7 7 7 7 9 9 8 7 6 7 6 7 8 11 11 12 11 7 9 10 10 10 11 12 11 10 10 7 6 5 6 5 5 6 7 6 5 5 5 4 4 4 4
6 2 2 2 2 2 3 2 2 2 3 7 4 3 5 6 2 3 6 4 6 7 9 9 8 7 8 6 6 4 6 8 7 5 5 5 7 5 4 2 4 3 2 2 3 7 7 6 4 4 7 8 7 7 6 9 9 12 14 6 8 8 12 11 12 11 13 11 8 8 8 8 6 5 5 6 5 5 5 6 6 5 4 4 4 4
2 2 1 2 1 3 4 4 2 2 1 9 5 3 4 4 4 4 5 6 7 7 6 4 5 8 9 9 8 9 9 6 7 7 7 5 6 6 6 8 7 8 8 8 10 6 5 6 8 9 10 10 8 9 7 11 10 11 4 6 7 10 12 11 12 13 10 10 7 7 7 8 7 6 6 6 5 5 5 5 5 5 4 4 4 4
2 6 2 2 0 4 1 3 1 3 3 4 2 4 4 4 2 3 1 1 1 3 4 5 4 5 6 6 9 9 8 6 7 7 7 7 7 6 6 7 7 6 6 7 3 6 5 7 10 11 11 12 10 10 10 11 12 11 6 5 8 11 11 11 12 11 12 10 8 7 8 7 9 9 6 7 6 6 5 5 5 5 6 6 5 4
3 9 4 4 4 3 3 2 3 1 1 5 4 6 3 5 7 5 3 1 3 6 5 3 1 4 8 8 7 7 8 7 8 8 7 6 6 7 9 8 7 8 6 5 6 7 9 10 11 12 12 13 9 7 9 11 10 8 8 8 9 11 13 11 12 10 12 9 6 6 6 6 6 6 6 5 5 4 4 5 6 5 4 3 2 3
4 4 3 4 2 3 5 7 8 4 2 4 7 11 10 7 6 5 4 4 4 6 5 8 5 2 3 2 5 7 8 8 7 7 6 9 8 9 8 8 7 7 5 5 3 6 8 8 10 11 12 12 7 7 9 10 9 7 8 8 10 10 12 11 9 9 9 7 7 6 6 5 5 5 4 5 5 4 4 5 8 6 5 4 7 12
7 7 7 5 7 3 4 8 9 2 2 5 9 8 6 7 7 9 9 10 9 8 8 9 7 4 5 7 5 8 10 7 9 8 8 7 8 8 8 9 8 8 8 5 6 7 9 10 10 9 10 11 7 8 8 8 7 7 8 9 10 10 11 9 8 6 5 6 7 8 6 6 5 5 4 4 4 4 4 3 5 12 15 12 10 10
Wind_Direction
342 193 197 214 223 197 200 205 228 42 79 72 92 277 261 269 271 100 145 57 339 273 250 255 260 264 265 254 187 185 176 215 209 200 190 189 190 195 190 186 174 170 108 50 37 43 36 34 28 19 21 44 65 53 50 60 57 54 63 82 75 54 52 89 93 88 97 96 93 78 70 69 55 54 56 53 44 45 43 37 40 39 38 35 35 35
221 221 228 231 105 183 207 211 144 140 84 244 261 255 267 235 267 88 110 91 65 244 269 191 267 259 263 262 188 167 187 217 210 205 198 192 197 190 188 178 184 147 114 165 128 86 74 53 44 43 46 37 77 51 53 61 59 63 65 72 77 65 64 65 73 86 77 68 74 88 78 76 60 54 54 56 47 47 44 41 40 42 39 39 41 36
202 218 237 206 93 115 163 197 208 226 222 188 248 255 265 263 288 270 174 160 214 179 262 230 257 264 257 253 177 193 206 216 214 221 205 195 195 193 184 181 174 171 167 151 130 117 108 80 60 59 53 59 61 66 66 64 79 73 75 74 76 73 78 69 74 83 86 85 83 90 90 85 81 66 64 66 60 53 53 46 43 41 40 40 41 39
229 236 240 108 141 143 116 185 194 205 237 232 211 229 241 275 213 269 119 120 172 229 321 9 292 277 271 244 223 159 206 133 100 239 243 246 217 204 192 182 181 176 166 166 155 147 124 95 88 75 65 58 64 77 77 68 75 74 73 76 81 80 80 79 75 86 87 91 93 89 92 88 85 86 77 73 61 54 50 47 42 41 39 40 44 39
217 74 7 163 170 189 181 168 183 200 229 216 224 232 248 210 225 238 303 19 116 234 293 288 281 274 260 237 209 135 122 168 173 188 221 216 233 196 143 194 205 181 171 160 159 150 141 129 92 71 60 56 69 64 54 48 64 75 79 80 84 84 85 89 95 97 104 105 101 102 101 102 100 88 77 69 58 54 56 55 44 39 40 44 46 44
243 107 121 143 168 194 165 183 196 200 237 219 212 224 236 242 246 222 304 309 266 258 165 221 288 268 168 231 249 116 182 211 188 208 209 199 195 198 203 197 180 173 167 168 161 152 139 125 116 102 85 70 73 66 41 39 59 82 92 92 92 90 89 92 96 108 120 117 120 126 121 111 97 83 68 61 65 59 56 57 56 48 44 46 48 47
258 103 166 161 173 186 205 216 194 198 235 238 238 200 228 242 242 217 209 154 255 257 72 294 232 275 13 295 155 162 205 224 185 215 212 198 199 199 205 192 184 177 170 166 154 151 154 140 132 116 90 74 76 61 51 61 69 80 85 85 86 91 89 75 85 81 103 98 92 90 91 95 99 102 85 86 80 82 76 70 63 59 48 44 50 47
151 159 141 164 169 181 192 224 178 188 211 235 78 183 209 216 207 221 211 217 258 40 118 157 263 272 287 272 102 158 234 231 223 212 205 201 198 201 200 191 181 176 172 168 163 157 142 141 141 125 103 89 75 71 79 81 79 83 88 93 91 89 88 82 88 80 85 102 101 101 98 93 95 97 105 97 88 83 84 81 72 68 58 49 47 49
172 166 187 180 196 187 217 220 133 189 200 272 44 199 168 199 210 181 202 221 265 344 261 172 169 259 246 256 95 18 293 248 231 206 199 194 196 201 197 187 179 176 172 167 161 158 155 150 141 131 122 96 95 78 80 88 90 94 98 99 98 95 93 88 89 95 89 96 102 103 108 102 97 103 104 102 98 92 87 85 76 72 69 62 53 49
316 227 207 201 181 216 147 30 169 169 216 112 120 88 84 83 74 172 199 207 195 232 246 200 175 237 267 230 253 141 254 269 249 185 188 184 187 194 189 178 174 169 162 162 152 145 142 139 134 117 115 117 92 91 98 106 112 113 112 107 104 98 96 98 99 101 99 97 102 107 109 112 114 114 111 108 102 96 90 83 77 73 69 64 60 52
358 203 328 206 216 201 102 54 10 348 36 125 156 111 104 88 102 99 81 182 215 241 241 207 181 211 276 184 224 217 224 274 75 109 148 169 179 182 178 171 173 172 167 163 154 145 136 122 129 147 145 128 121 117 123 118 122 120 115 114 103 101 103 104 103 105 103 103 107 109 114 115 119 118 118 115 105 101 95 89 81 77 73 67 64 59
175 91 193 222 54 103 105 92 44 50 141 156 162 149 130 102 152 179 146 200 232 255 118 45 207 198 226 234 235 236 106 100 345 20 175 178 179 173 171 170 174 171 167 159 156 155 149 149 157 165 151 148 138 134 131 130 125 120 115 116 110 106 107 106 106 108 108 107 105 107 111 112 114 118 117 112 108 104 101 97 95 91 85 74 68 60
238 213 138 90 278 152 151 112 89 107 194 215 159 164 191 187 157 215 166 221 211 242 90 87 142 184 237 240 330 306 269 144 176 42 136 178 171 167 168 171 171 169 165 165 165 161 168 174 172 175 158 149 154 149 143 138 129 123 118 121 117 112 113 112 116 116 115 112 109 110 108 105 103 101 103 106 107 108 105 102 98 93 85 78 68 57
242 105 162 188 121 237 180 175 146 182 195 194 185 180 189 199 199 247 196 293 304 162 53 104 156 255 356 244 239 256 91 53 87 114 53 162 171 166 168 169 171 170 174 172 168 171 178 178 176 173 163 163 155 153 149 146 142 135 128 128 121 119 121 122 120 120 116 108 108 105 104 104 105 102 102 102 102 96 91 89 87 84 83 84 80 71
235 224 212 152 229 157 201 212 183 161 162 198 209 190 210 193 181 212 196 225 248 69 99 228 183 233 170 188 25 342 57 92 82 106 97 40 130 152 156 159 166 176 182 172 174 181 183 180 177 172 169 165 164 160 157 158 153 146 136 135 130 126 129 129 125 122 115 110 106 104 102 105 107 107 105 101 100 100 99 91 93 89 88 90 87 80
226 266 49 175 7 154 191 198 86 103 146 166 278 1 299 224 109 256 24 317 45 202 183 177 236 261 211 88 46 78 168 154 142 118 143 136 150 152 156 175 184 187 182 177 182 186 186 181 176 175 173 171 167 168 167 164 160 156 148 141 136 132 135 135 130 124 120 115 112 109 109 109 108 107 107 106 103 103 106 107 104 102 97 92 92 87
77 238 87 126 93 189 188 127 177 164 204 171 150 209 200 11 121 103 134 91 40 293 254 148 248 233 308 243 154 183 165 164 150 142 155 154 157 168 181 184 188 189 183 178 187 189 183 175 182 184 178 175 173 174 175 171 170 163 151 144 137 135 136 137 132 126 123 121 119 118 118 121 122 121 120 121 123 121 119 115 110 102 98 98 89 88
197 172 112 151 198 10 22 312 59 24 71 106 216 205 73 38 358 205 247 127 220 250 266 144 215 209 159 239 139 178 194 183 183 172 166 164 166 186 194 191 191 187 183 183 188 187 181 182 187 185 182 180 179 175 170 168 166 162 159 154 144 146 144 144 136 132 132 130 125 128 127 125 123 122 125 128 131 131 126 123 117 118 106 86 83 88
188 256 141 302 53 68 2 184 165 40 338 246 197 123 164 201 212 188 222 238 193 234 260 206 217 232 196 200 149 193 197 192 190 160 167 187 193 201 196 195 185 177 176 186 191 188 185 190 192 187 181 175 176 172 167 163 162 164 163 158 156 151 150 145 141 137 136 136 132 134 134 133 130 128 127 129 130 131 128 121 114 107 105 111 119 123
219 232 164 74 140 118 152 187 199 180 197 21 127 194 1 337 232 160 208 314 192 251 208 243 135 240 190 204 178 187 194 190 162 154 200 203 198 192 191 185 182 187 193 192 192 189 186 191 189 181 177 174 176 174 170 165 165 170 168 164 157 146 144 145 144 145 143 142 137 135 133 134 133 133 135 137 139 133 124 119 120 126 133 137 139 115
188 112 256 106 310 145 186 196 212 174 177 167 190 193 171 217 347 324 340 207 208 234 221 275 259 220 169 185 179 183 189 169 158 190 202 201 199 191 183 179 182 190 192 192 191 183 181 184 182 176 176 176 175 173 168 168 173 173 171 174 166 160 157 156 155 152 148 147 146 143 143 144 143 142 140 141 136 126 127 137 144 138 132 125 94 90
197 178 217 117 164 211 222 172 314 215 193 186 182 190 185 165 175 185 230 94 241 215 241 192 255 104 165 16 307 119 121 139 185 188 195 189 174 165 172 182 187 192 194 192 179 163 172 181 177 170 173 176 170 172 175 175 177 179 183 178 173 170 169 164 164 161 155 155 153 152 148 148 147 147 148 145 142 139 144 145 132 126 118 96 84 72
160 83 108 197 210 207 120 20 257 321 336 290 240 216 193 200 179 190 222 171 77 237 37 327 335 274 78 290 46 91 81 48 357 206 228 177 173 178 183 188 191 195 194 179 166 172 179 181 178 180 182 181 180 177 180 182 186 186 186 182 183 177 175 172 166 162 162 160 159 157 153 150 152 153 153 148 147 144 136 126 116 109 98 92 98 88
87 172 205 235 56 359 175 182 160 251 360 260 248 243 198 209 195 217 248 138 192 148 204 211 252 249 210 176 348 12 1 314 264 228 218 191 168 175 181 183 185 186 179 155 162 170 178 181 178 180 186 186 186 183 183 182 187 190 189 188 184 184 175 173 171 169 168 166 163 157 154 156 156 157 158 154 146 139 128 123 113 106 108 114 111 114
155 213 187 167 215 194 222 179 206 142 194 226 217 196 212 205 153 56 89 30 239 205 178 174 239 159 210 117 50 351 306 263 236 223 210 199 178 184 184 183 185 181 172 178 182 184 180 183 190 195 189 185 182 178 179 184 191 190 192 189 187 185 178 175 175 175 173 169 163 164 165 165 165 163 161 151 144 138 128 123 126 124 126 134 134 127
184 158 165 197 200 206 200 203 209 197 206 187 347 154 194 200 176 146 217 185 234 178 175 213 237 90 107 47 288 249 245 259 243 221 192 215 197 181 177 181 181 183 189 186 184 178 188 194 193 190 188 184 182 181 183 186 190 192 191 192 188 184 178 179 168 172 171 172 170 175 177 172 170 165 159 151 141 135 131 133 136 141 140 139 143 135
188 164 193 202 206 213 220 39 17 84 85 200 196 188 199 202 196 198 214 191 217 125 196 219 216 165 205 219 226 215 209 216 209 196 205 205 207 189 179 181 185 189 188 189 188 190 182 184 197 197 187 184 182 182 184 186 188 190 190 190 189 190 182 177 173 179 182 183 186 185 183 180 176 167 160 151 138 134 139 143 144 152 151 144 139 147
72 191 214 217 222 231 329 182 220 157 186 206 175 203 195 193 194 194 201 214 110 134 245 194 124 238 206 182 206 202 209 224 210 187 190 201 194 186 184 180 185 190 194 189 191 192 198 202 195 189 189 183 184 185 187 188 189 188 189 189 189 191 186 180 178 182 187 188 190 189 188 187 181 169 157 141 135 141 146 147 152 157 152 147 157 157
188 217 222 208 234 227 98 226 197 211 201 194 193 188 191 191 185 199 214 212 156 204 232 122 172 209 224 173 193 191 195 198 193 194 191 174 155 157 164 179 190 198 196 197 204 204 204 199 192 188 185 186 182 188 191 189 188 185 189 193 192 191 192 183 180 184 187 189 193 193 188 183 174 166 144 138 142 151 157 158 158 159 154 151 151 159
130 240 155 194 231 226 217 183 177 199 177 246 211 206 199 189 195 196 208 207 198 227 235 223 185 229 208 136 180 200 170 161 148 109 125 151 170 171 178 188 195 197 199 204 207 208 207 203 193 187 185 187 191 192 191 188 188 192 194 199 198 192 190 176 188 187 184 185 192 187 183 179 169 166 150 151 160 164 164 162 163 164 158 153 158 178
161 232 137 153 212 227 201 172 160 196 173 216 232 222 214 204 184 196 206 207 216 242 247 188 259 250 174 162 174 97 119 99 114 160 174 172 164 174 183 192 197 200 202 209 211 208 200 196 190 183 188 191 191 192 190 192 192 194 200 202 198 194 186 179 183 186 184 191 192 184 178 176 176 170 166 164 164 163 162 164 162 164 158 154 164 189
178 229 63 155 217 234 184 180 192 198 326 251 251 235 211 150 164 196 204 209 198 216 227 243 247 249 161 164 104 140 147 165 171 173 172 185 183 176 183 192 193 198 203 206 208 206 206 200 194 193 196 196 194 192 192 194 196 197 204 199 196 189 170 176 183 189 196 196 187 182 177 183 176 175 171 162 167 162 163 156 158 165 162 165 174 196
195 169 170 184 211 224 192 179 179 122 214 280 238 225 197 182 186 171 218 208 206 196 200 212 233 241 184 158 148 181 183 189 182 171 185 179 178 179 186 186 189 195 197 195 197 202 202 200 199 198 197 193 193 194 198 194 192 200 198 192 188 162 171 186 191 196 199 194 186 181 183 186 181 179 169 170 162 160 155 160 167 167 168 177 176 180
159 187 207 173 226 179 173 161 132 165 211 230 274 162 187 195 196 193 212 211 212 197 209 207 225 132 143 167 179 182 186 203 195 200 167 167 173 190 196 198 202 188 183 191 195 195 199 199 203 203 202 199 198 199 195 193 199 200 192 186 177 177 181 185 195 198 201 194 190 186 186 186 177 179 175 164 159 164 169 171 182 175 169 160 171 193
180 185 209 155 202 175 151 133 169 207 228 45 306 331 215 200 190 202 215 207 208 213 220 264 167 176 176 171 181 185 188 118 44 187 199 205 183 175 187 204 205 185 198 197 198 202 200 198 195 197 201 205 199 189 183 194 196 187 176 177 180 183 182 191 195 200 201 196 191 185 185 182 184 184 171 165 166 168 175 175 172 164 173 172 184 193
183 185 161 196 147 58 153 178 204 223 39 44 5 2 58 62 175 202 238 237 217 206 210 225 225 198 148 140 85 74 117 115 73 262 237 214 185 177 187 198 187 184 192 198 192 195 188 191 193 193 198 179 168 181 187 192 184 183 186 179 181 181 187 188 195 203 198 195 189 188 189 180 185 181 170 172 173 176 180 175 175 173 171 168 185 196
190 178 187 198 169 186 195 200 235 22 308 160 102 191 168 165 165 176 208 230 210 203 199 213 226 196 120 118 112 104 94 95 270 255 205 203 195 212 200 189 175 184 188 176 186 194 183 179 179 179 151 165 175 177 186 174 169 175 170 173 184 176 183 185 197 203 200 203 196 190 187 185 184 179 174 173 172 180 180 171 173 174 166 173 194 194
206 199 192 197 209 142 150 188 287 250 243 221 166 186 215 3 130 175 198 256 85 199 187 191 213 204 141 113 119 122 140 146 249 246 174 192 194 195 197 155 136 163 170 142 139 124 157 160 146 152 166 170 178 179 166 164 165 169 169 177 173 173 182 187 203 204 197 202 197 190 187 187 179 171 173 172 184 178 179 171 172 172 174 183 188 205
39 52 341 213 175 136 199 216 209 216 243 87 136 107 10 200 125 109 89 259 140 176 185 187 204 187 160 149 151 149 142 206 235 233 134 178 180 177 186 206 189 177 165 180 182 182 169 159 158 158 159 162 173 176 166 162 161 162 176 175 172 177 181 198 205 199 198 205 196 184 177 176 174 177 175 180 183 169 171 175 174 161 164 185 194 207
143 176 171 218 200 197 201 219 226 229 260 81 206 128 208 258 149 101 247 267 162 202 184 173 195 168 142 139 148 167 170 213 227 224 142 169 177 176 186 187 180 185 202 190 203 146 121 131 131 147 170 186 193 164 162 160 164 176 177 177 168 179 197 204 203 201 198 185 165 168 169 176 175 178 173 178 158 163 170 151 151 169 177 185 195 203
168 191 199 216 211 210 211 235 1 275 230 140 150 185 190 272 125 178 223 116 163 160 172 180 191 135 140 146 173 174 221 209 42 73 122 120 125 171 198 172 171 184 184 175 166 145 144 165 176 178 187 196 170 155 163 159 159 177 187 169 175 200 207 206 192 176 175 164 159 166 167 171 177 177 175 159 160 155 149 165 171 166 177 183 201 203
46 97 317 90 225 218 224 234 245 296 206 137 334 129 224 132 182 199 184 6 147 181 200 199 146 157 161 174 186 213 111 105 104 84 129 159 169 164 156 162 150 147 65 83 134 161 161 175 197 203 197 170 152 159 161 164 174 187 168 170 200 210 204 168 158 163 156 160 167 160 157 159 156 148 152 143 143 150 162 169 161 167 174 195 199 201
179 140 192 185 188 61 92 251 237 246 136 136 122 62 302 171 280 96 111 69 74 166 162 203 186 174 176 190 207 147 105 145 151 167 173 161 162 152 159 168 184 180 172 154 165 200 180 175 196 204 199 170 161 170 168 171 181 186 177 188 213 197 145 157 151 154 157 156 153 158 156 159 155 150 147 148 155 144 161 157 164 173 177 195 203 212
190 124 205 216 187 171 188 205 208 252 129 172 149 175 188 189 152 140 126 134 139 173 182 173 201 194 197 181 174 165 142 158 178 157 169 178 173 99 130 170 167 172 179 199 189 173 183 202 200 203 196 164 167 172 171 176 186 186 185 214 200 122 133 141 151 147 151 157 158 151 162 157 150 143 151 150 154 162 156 170 168 176 196 194 206 219
213 190 182 189 169 169 200 202 42 272 157 180 95 349 130 132 115 156 127 145 150 214 201 194 192 184 200 191 169 159 160 203 195 182 178 191 187 184 177 187 186 190 191 185 198 169 181 205 205 205 195 187 171 186 186 195 190 189 202 215 148 161 158 153 141 152 152 165 163 165 158 150 158 157 157 156 158 165 176 170 167 189 197 191 214 221
5 51 358 97 273 83 36 137 34 45 162 166 59 359 110 124 84 91 141 136 232 175 171 186 192 173 179 177 141 180 192 184 189 200 213 211 197 195 176 159 219 226 209 172 173 185 200 207 229 223 221 206 182 191 192 198 201 196 218 171 169 161 146 150 155 166 176 163 168 167 149 153 153 161 163 166 179 185 182 172 179 197 190 192 211 211
250 89 79 192 304 127 235 102 156 150 127 198 154 61 23 60 139 151 181 187 172 159 185 262 155 168 165 168 191 170 196 181 185 197 203 206 203 201 193 202 205 194 186 194 210 178 176 191 211 221 222 225 197 192 200 204 213 222 206 165 153 150 148 160 165 168 165 176 170 160 165 166 171 169 169 181 182 190 190 189 189 196 203 201 207 208
267 163 71 200 332 200 359 121 247 330 284 303 241 159 178 158 160 184 278 322 28 157 153 134 107 103 140 177 204 181 192 175 179 200 198 207 205 198 202 212 211 194 213 213 185 182 194 194 210 220 220 228 217 188 201 205 217 222 202 156 153 146 153 169 182 182 180 175 168 170 177 182 174 170 172 183 181 182 186 192 195 199 206 201 201 200
119 128 210 170 153 99 26 312 275 313 243 210 209 253 189 163 159 170 194 144 117 137 145 125 257 159 174 193 178 196 199 199 196 198 196 203 204 211 215 214 210 208 199 190 204 192 203 206 213 222 221 229 224 195 202 216 224 216 196 167 151 163 174 186 192 192 173 170 168 179 172 179 165 185 174 167 181 207 195 185 190 203 223 225 217 224
123 206 157 111 116 206 183 178 174 127 226 196 211 215 194 185 168 167 164 191 185 154 161 166 201 166 209 220 180 185 201 213 204 198 211 211 203 205 205 214 213 208 217 213 185 200 220 224 220 223 226 235 223 204 210 217 217 204 179 163 164 170 186 192 176 180 179 176 180 171 168 183 178 177 175 171 182 190 234 246 226 216 212 224 219 227
187 183 148 181 203 207 193 157 187 135 85 194 200 206 172 157 163 173 192 196 199 192 173 163 159 176 214 228 210 188 206 211 211 189 213 225 222 213 205 201 202 208 224 208 204 218 218 225 225 231 239 239 223 216 217 220 211 191 181 174 172 184 196 183 180 190 181 170 196 180 171 167 166 171 180 177 178 182 196 205 223 229 230 229 228 232